Date,TemperatureHighF,TemperatureAvgF,TemperatureLowF,DewpointHighF,DewpointAvgF,DewpointLowF,HumidityHigh,HumidityAvg,HumidityLow,PressureMaxIn,PressureMinIn,WindSpeedMaxMPH,WindSpeedAvgMPH,GustSpeedMaxMPH,PrecipitationSumIn
2013-1-1,22,17,12,14,12,8,94,83,69,0.00,40.00,3,1,17,0.00
2013-1-2,25,18,12,14,11,8,87,75,59,0.00,40.00,2,0,16,0.00
2013-1-3,26,17,12,15,12,8,90,79,62,0.00,40.00,3,0,17,0.00
2013-1-4,32,22,13,18,15,10,91,75,56,0.00,40.00,3,0,15,0.00
2013-1-5,28,23,15,20,17,12,89,79,68,0.00,40.00,2,0,16,0.00
2013-1-6,27,23,20,23,19,16,93,84,78,0.00,40.00,3,1,14,0.00
2013-1-7,39,30,20,28,22,18,92,74,46,0.00,40.00,3,1,15,0.00
2013-1-8,50,39,33,31,29,28,84,69,47,0.00,40.00,3,1,13,0.00
2013-1-9,51,40,28,33,26,16,87,61,32,0.00,40.00,22,5,37,0.00
2013-1-10,28,25,23,18,11,8,66,55,49,0.00,40.00,22,7,37,0.00
2013-1-11,27,23,18,21,11,3,94,63,37,0.00,40.00,9,3,27,0.00
2013-1-12,22,16,10,13,10,5,94,75,58,0.00,40.00,3,1,19,0.00
2013-1-13,21,14,5,8,4,-1,80,65,46,0.00,40.00,5,2,25,0.00
2013-1-14,20,13,5,8,4,1,85,66,43,0.00,40.00,4,1,23,0.00
2013-1-15,32,23,16,17,11,4,69,60,48,0.00,40.00,3,1,20,0.00
2013-1-16,35,27,20,22,17,15,81,66,52,0.00,40.00,2,0,17,0.00
2013-1-17,35,26,20,18,15,12,78,65,41,0.00,40.00,2,1,18,0.00
2013-1-18,34,25,17,18,15,11,83,67,48,0.00,40.00,1,0,16,0.00
2013-1-19,30,23,18,17,14,11,73,69,59,0.00,40.00,1,0,16,0.00
2013-1-20,36,27,17,18,15,10,74,61,43,0.00,40.00,3,1,18,0.00
2013-1-21,42,28,20,20,16,11,75,59,36,0.00,40.00,2,0,17,0.00
2013-1-22,40,32,24,24,20,15,72,59,49,0.00,40.00,2,0,17,0.00
2013-1-23,52,40,30,28,22,14,71,51,22,0.00,40.00,13,4,22,0.00
2013-1-24,42,34,36,36,19,-100,96,82,62,0.00,40.00,2,0,12,0.00
2013-1-25,46,38,32,42,36,31,99,90,71,0.00,40.00,4,1,14,0.00
2013-1-26,50,42,37,36,28,20,86,59,35,0.00,40.00,11,5,40,0.00
2013-1-27,36,29,24,25,18,5,96,65,30,0.00,40.00,13,4,36,0.00
2013-1-28,34,27,18,22,16,11,78,64,48,0.00,40.00,4,1,18,0.00
2013-1-29,45,40,30,29,26,22,70,59,50,0.00,40.00,7,3,18,0.00
2013-1-30,50,39,33,33,28,23,79,67,39,0.00,40.00,3,1,13,0.00
2013-1-31,53,43,30,31,22,8,78,47,16,0.00,40.00,9,1,17,0.00
2013-2-1,47,39,30,27,21,16,61,49,37,0.00,40.00,4,1,16,0.00
2013-2-2,42,38,33,30,27,24,70,65,59,0.00,40.00,3,1,14,0.00
2013-2-3,52,39,32,30,24,18,75,59,27,0.00,40.00,5,1,15,0.00
2013-2-4,55,45,32,27,21,5,61,41,13,0.00,40.00,9,2,20,0.00
2013-2-5,56,46,39,23,14,4,44,28,14,0.00,40.00,8,4,22,0.00
2013-2-6,49,38,27,14,8,3,49,29,16,0.00,40.00,6,2,20,0.00
2013-2-7,45,39,27,23,4,-10,61,27,9,0.00,40.00,14,9,34,0.00
2013-2-8,33,28,23,18,15,11,75,59,48,0.00,40.00,8,4,31,0.00
2013-2-9,34,28,22,16,13,10,68,55,38,0.00,40.00,5,2,24,0.00
2013-2-10,36,29,21,18,14,12,72,55,42,0.00,40.00,8,3,21,0.00
2013-2-11,39,28,23,15,11,6,60,50,25,0.00,40.00,4,1,18,0.00
2013-2-12,48,34,24,20,16,13,65,48,27,0.00,40.00,3,1,19,0.00
2013-2-13,51,36,26,22,20,18,73,53,31,0.00,40.00,4,1,18,0.00
2013-2-14,50,38,29,26,23,21,73,56,38,0.00,40.00,5,2,18,0.00
2013-2-15,54,41,30,27,23,17,75,52,23,0.00,40.00,3,1,16,0.00
2013-2-16,52,42,32,27,19,7,61,42,21,0.00,40.00,11,2,22,0.00
2013-2-17,53,42,35,21,14,6,49,32,23,0.00,40.00,6,3,17,0.00
2013-2-18,50,36,26,21,16,7,63,46,20,0.00,40.00,11,2,25,0.00
2013-2-19,37,34,32,30,19,10,93,56,33,0.00,40.00,9,0,26,0.00
2013-2-20,37,29,25,23,17,5,89,64,28,0.00,40.00,0,0,0,0.00
2013-2-21,36,27,24,24,18,12,91,69,40,0.00,40.00,0,0,0,0.00
2013-2-25,52,43,34,22,13,3,53,32,13,0.00,40.00,0,0,0,0.00
2013-2-26,42,32,24,17,10,-4,56,41,14,0.00,40.00,4,1,18,0.00
2013-2-27,52,36,25,14,9,6,50,34,16,0.00,40.00,6,2,17,0.00
2013-2-28,58,46,35,30,21,11,53,36,24,0.00,40.00,7,3,20,0.00
2013-3-1,61,48,37,30,27,24,68,48,26,0.00,40.00,5,2,14,0.00
2013-3-2,63,50,41,29,24,15,57,39,15,0.00,40.00,8,3,18,0.00
2013-3-3,46,42,38,40,36,31,91,79,56,0.00,40.00,6,3,18,0.00
2013-3-4,38,36,33,35,32,28,88,84,78,0.00,40.00,3,1,21,0.00
2013-3-5,56,55,54,24,23,22,31,29,27,0.00,40.00,12,8,26,0.00
2013-3-7,32,29,27,27,26,24,92,88,80,0.00,40.00,2,1,13,0.00
2013-3-11,62,54,46,23,15,9,40,21,13,0.00,40.00,5,2,14,0.00
2013-3-12,63,51,40,24,18,14,39,28,16,0.00,40.00,3,1,13,0.00
2013-3-13,72,62,43,32,23,14,47,25,11,0.00,40.00,9,4,20,0.00
2013-3-14,59,55,51,30,22,12,40,27,18,0.00,40.00,4,2,13,0.00
2013-3-15,66,58,53,24,22,15,30,24,18,0.00,40.00,9,6,19,0.00
2013-3-16,58,50,42,26,21,15,48,33,21,0.00,40.00,14,6,33,0.00
2013-3-17,59,49,43,20,12,2,34,24,11,0.00,40.00,9,5,25,0.00
2013-3-18,60,51,40,26,18,8,40,28,15,0.00,40.00,7,3,19,0.00
2013-3-19,46,45,44,25,21,19,46,38,33,0.00,40.00,6,4,18,0.00
2013-3-21,54,48,40,28,22,14,53,37,22,0.00,40.00,11,6,21,0.00
2013-3-22,49,38,28,15,7,-5,50,30,10,0.00,40.00,7,3,21,0.00
2013-3-23,45,32,25,13,8,5,45,36,26,0.00,40.00,5,2,17,0.00
2013-3-25,64,55,45,22,13,-1,35,21,11,0.00,40.00,9,5,28,0.00
2013-3-26,56,52,44,31,25,0,42,36,13,0.00,40.00,9,6,28,0.00
2013-3-27,60,55,48,34,30,26,59,40,27,0.00,40.00,11,6,31,0.00
2013-3-28,59,49,44,37,32,24,74,52,28,0.00,40.00,13,7,28,0.00
2013-3-29,65,48,36,36,32,27,83,56,26,0.00,40.00,7,3,18,0.00
2013-3-30,64,52,44,37,32,28,59,47,26,0.00,40.00,10,3,26,0.00
2013-3-31,53,50,42,37,35,35,81,59,50,0.00,40.00,10,8,20,0.00
2013-4-8,41,38,32,28,20,13,81,50,33,0.00,40.00,11,7,25,0.00
2013-4-9,52,42,32,19,13,9,57,34,19,0.00,40.00,8,4,22,0.00
2013-4-10,65,55,37,33,27,17,47,34,27,0.00,40.00,7,4,21,0.00
2013-4-11,59,53,42,39,32,20,84,48,27,0.00,40.00,8,3,19,0.00
2013-4-12,61,52,40,34,27,22,51,39,28,0.00,40.00,9,4,20,0.00
2013-4-13,54,54,53,26,22,19,35,30,25,0.00,40.00,7,6,16,0.00
2013-4-15,47,37,29,29,24,16,94,64,29,0.00,40.00,9,6,28,0.00
2013-4-16,34,30,28,27,21,9,93,72,34,0.00,40.00,9,5,34,0.00
2013-4-17,45,33,27,22,16,9,73,52,23,0.00,40.00,6,3,19,0.00
2013-4-18,55,52,48,15,13,12,26,21,18,0.00,40.00,5,4,16,0.00
2013-4-19,62,53,39,30,24,16,45,32,22,0.00,40.00,10,6,26,0.00
2013-4-20,62,53,41,31,27,14,57,38,16,0.00,40.00,6,4,15,0.00
2013-4-21,71,57,46,27,23,18,46,29,17,0.00,40.00,5,3,13,0.00
2013-4-22,69,60,47,21,17,11,23,19,14,0.00,40.00,10,6,24,0.00
2013-4-23,60,48,37,14,8,1,33,21,13,0.00,40.00,5,3,18,0.00
2013-4-24,63,53,41,17,6,0,28,16,11,0.00,40.00,8,4,18,0.00
2013-4-25,69,55,40,26,15,3,31,21,12,0.00,40.00,11,4,21,0.00
2013-4-26,73,60,46,34,26,14,44,29,11,0.00,40.00,10,4,23,0.00
2013-4-27,75,59,47,38,33,23,55,39,15,0.00,40.00,8,3,18,0.00
2013-4-30,59,58,56,24,23,22,28,26,25,0.00,40.00,5,5,15,0.00
2013-5-2,69,59,48,14,12,9,22,16,11,0.00,40.00,4,3,16,0.00
2013-5-3,75,64,50,32,18,8,30,18,10,0.00,40.00,11,4,25,0.00
2013-5-4,61,55,48,29,20,9,47,27,13,0.00,40.00,13,3,28,0.00
2013-5-5,58,50,41,42,38,27,92,65,44,0.00,40.00,7,3,20,0.00
2013-5-6,50,46,42,41,38,35,88,74,60,0.00,40.00,11,6,30,0.00
2013-5-7,47,44,40,42,38,35,92,83,72,0.00,40.00,9,4,23,0.00
2013-5-8,63,51,43,47,41,34,94,71,36,0.00,40.00,10,3,21,0.00
2013-5-9,69,57,46,44,41,36,76,57,33,0.00,40.00,7,4,18,0.00
2013-5-15,69,61,55,41,24,13,42,26,13,0.00,40.00,10,5,22,0.00
2013-5-16,59,50,48,37,13,-100,61,46,29,0.00,40.00,10,5,28,0.00
2013-5-17,63,54,42,36,20,-100,68,36,10,0.00,40.00,9,5,28,0.00
2013-5-18,65,53,39,32,26,13,53,36,20,0.00,40.00,12,5,25,0.00
2013-5-19,66,52,43,36,32,27,70,51,23,0.00,40.00,8,3,23,0.00
2013-5-21,71,65,56,29,22,12,25,20,12,0.00,40.00,14,9,37,0.00
2013-5-22,58,51,45,25,14,-1,44,23,11,0.00,40.00,12,8,30,0.00
2013-5-23,56,48,38,23,18,8,49,31,16,0.00,40.00,12,5,27,0.00
2013-5-24,70,54,39,30,22,9,52,31,10,0.00,40.00,13,5,28,0.00
2013-5-25,66,56,48,33,25,13,46,31,18,0.00,40.00,11,7,30,0.00
2013-5-26,66,57,47,29,25,20,41,29,21,0.00,40.00,10,6,26,0.00
2013-5-27,63,54,44,41,32,19,56,45,26,0.00,40.00,11,5,25,0.00
2013-5-28,60,54,49,41,36,30,72,53,32,0.00,40.00,11,6,24,0.00
2013-5-29,66,59,52,42,32,26,62,37,24,0.00,40.00,13,7,34,0.00
2013-5-30,72,60,46,39,31,16,59,38,12,0.00,40.00,10,5,24,0.00
2013-5-31,55,54,53,32,32,31,43,42,42,0.00,40.00,2,2,8,0.00
2013-6-4,84,76,62,45,36,26,35,25,13,0.00,40.00,9,5,20,0.00
2013-6-5,87,79,62,41,28,20,32,17,9,0.00,40.00,7,3,13,0.00
2013-6-7,88,76,62,47,34,19,40,24,10,0.00,40.00,11,4,22,0.00
2013-6-8,90,77,63,41,35,23,32,23,14,0.00,40.00,5,3,15,0.00
2013-6-13,72,67,57,25,13,-4,27,13,6,0.00,40.00,10,-77,33,0.00
2013-6-14,71,60,46,28,24,16,44,26,18,0.00,40.00,7,-66,14,0.00
2013-6-15,77,65,51,34,24,18,38,23,13,0.00,40.00,14,-20,26,0.00
2013-6-28,95,86,76,54,43,35,46,24,13,0.00,40.00,9,4,23,0.00
2013-6-29,91,84,70,48,40,35,45,22,15,0.00,40.00,12,7,22,0.00
2013-6-30,93,81,67,51,45,38,43,29,15,0.00,40.00,10,5,21,0.00
2013-7-1,94,83,69,53,42,34,40,25,12,0.00,40.00,17,5,32,0.00
2013-7-2,96,82,72,49,44,39,38,28,14,0.00,40.00,13,5,28,0.00
2013-7-3,92,79,63,54,46,40,62,34,17,0.00,40.00,9,-74,20,0.00
2013-7-4,91,81,68,52,48,44,49,33,22,0.00,40.00,13,-59,23,0.00
2013-7-5,89,82,74,52,38,22,44,24,10,0.00,40.00,11,-40,21,0.00
2013-7-6,87,78,64,35,30,19,26,18,12,0.00,40.00,10,-43,20,0.00
2013-7-7,87,79,67,41,32,25,31,19,10,0.00,40.00,12,-102,31,0.00
2013-7-8,87,76,67,35,26,-100,24,17,10,0.00,40.00,10,-38,23,0.00
2013-7-9,84,76,64,37,30,21,25,18,13,0.00,40.00,16,-44,34,0.00
2013-7-10,84,78,65,34,32,30,32,19,14,0.00,40.00,9,-44,27,0.00
2013-7-15,86,76,64,43,39,34,36,27,17,0.00,40.00,11,-39,24,0.00
2013-7-16,84,75,66,39,34,27,33,24,14,0.00,40.00,12,-27,28,0.00
2013-7-17,86,78,65,38,30,24,25,18,11,0.00,40.00,12,-44,26,0.00
2013-7-18,93,85,72,41,35,24,31,18,9,0.00,40.00,9,-30,22,0.00
2013-7-19,97,85,66,46,37,27,34,19,9,0.00,40.00,14,-9,25,0.00
2013-7-20,99,87,73,47,34,-100,29,17,8,0.00,40.00,16,-12,26,0.00
2013-7-21,97,87,68,49,40,32,37,21,11,0.00,40.00,11,-17,29,0.00
2013-7-22,92,83,71,46,43,37,34,24,18,0.00,40.00,12,8,28,0.00
2013-7-23,83,75,68,50,45,40,50,35,22,0.00,40.00,10,-42,18,0.00
2013-7-24,84,74,62,49,46,44,58,39,25,0.00,40.00,12,-69,28,0.00
2013-7-25,89,77,66,55,48,44,66,38,21,0.00,40.00,19,-12,39,0.00
2013-7-26,87,73,60,56,50,44,77,49,26,0.00,40.00,11,-14,26,0.00
2013-7-27,87,80,70,47,41,34,42,27,15,0.00,40.00,11,-61,25,0.00
2013-7-28,85,77,69,46,38,33,40,26,16,0.00,40.00,9,5,23,0.00
2013-7-29,84,76,62,41,33,27,37,22,12,0.00,40.00,9,-16,23,0.00
2013-7-30,84,76,62,41,36,30,40,24,15,0.00,40.00,14,8,28,0.00
2013-7-31,84,74,68,41,35,28,33,25,13,0.00,40.00,12,-28,26,0.00
2013-8-1,78,70,61,38,24,16,35,19,10,0.00,40.00,10,-56,32,0.00
2013-8-2,79,68,48,34,24,18,33,20,11,0.00,40.00,14,-5,27,0.00
2013-8-3,82,73,54,40,33,25,40,25,14,0.00,40.00,13,6,26,0.00
2013-8-4,86,75,59,38,34,25,39,23,12,0.00,40.00,12,-49,26,0.00
2013-8-5,86,77,67,36,29,22,30,19,10,0.00,40.00,15,-60,32,0.00
2013-8-6,87,76,69,39,33,23,30,23,10,0.00,40.00,13,-17,23,0.00
2013-8-7,77,69,63,40,35,29,42,28,18,0.00,40.00,14,-15,36,0.00
2013-8-8,78,68,58,40,35,24,44,31,14,0.00,40.00,12,-15,25,0.00
2013-8-9,77,65,55,41,37,25,53,37,15,0.00,40.00,15,-5,29,0.00
2013-8-10,77,70,59,40,30,22,39,24,15,0.00,40.00,13,-31,27,0.00
2013-8-11,77,68,56,39,35,28,43,30,19,0.00,40.00,15,-7,29,0.00
2013-8-12,81,72,58,39,33,27,42,25,15,0.00,40.00,13,-7,27,0.00
2013-8-13,87,78,64,35,29,23,28,18,11,0.00,40.00,10,6,24,0.00
2013-8-14,86,74,59,36,28,19,27,19,9,0.00,40.00,13,-25,26,0.00
2013-8-15,87,71,70,34,12,-100,26,13,7,0.00,40.00,11,8,26,0.00
2013-8-16,85,75,65,34,20,-100,23,15,10,0.00,40.00,12,-12,29,0.00
2013-8-17,86,78,63,39,32,-100,31,20,15,0.00,40.00,11,-19,21,0.00
2013-8-18,83,74,63,43,39,36,39,29,19,0.00,40.00,4,2,11,0.00
2013-8-20,86,76,69,46,42,35,42,31,17,0.00,40.00,12,6,25,0.00
2013-8-21,82,69,60,58,49,43,64,50,26,0.00,40.00,6,-10,19,2.00
2013-8-22,80,70,56,54,40,31,77,38,17,0.00,40.00,12,4,26,0.00
2013-8-23,79,70,58,38,33,27,39,26,15,0.00,40.00,10,6,24,0.00
2013-8-24,79,71,59,38,28,-100,37,22,13,0.00,40.00,13,6,26,0.00
2013-8-25,76,68,59,39,34,26,40,29,18,0.00,40.00,11,6,27,0.00
2013-8-26,79,69,57,41,33,24,43,28,13,0.00,40.00,12,5,31,0.00
2013-8-27,78,64,57,39,34,30,44,33,22,0.00,40.00,5,2,13,0.00
2013-8-28,81,75,66,48,43,38,53,33,24,0.00,40.00,15,6,31,0.00
2013-8-29,83,74,65,40,35,24,38,26,12,0.00,40.00,11,-43,21,0.00
2013-8-30,69,68,67,35,34,29,30,28,24,0.00,40.00,3,2,10,0.00
2013-9-4,84,78,70,47,42,38,40,28,21,0.00,40.00,12,7,29,0.00
2013-9-5,81,72,65,41,36,28,39,28,16,0.00,40.00,12,6,29,0.00
2013-9-6,78,70,62,39,36,34,38,30,22,0.00,40.00,10,-14,23,0.00
2013-9-7,83,70,56,39,34,28,43,28,14,0.00,40.00,8,-21,18,0.00
2013-9-8,83,76,61,34,30,27,33,19,14,0.00,40.00,11,7,22,0.00
2013-9-9,84,75,57,34,30,28,38,20,14,0.00,40.00,7,4,17,0.00
2013-9-10,82,73,55,36,30,23,36,21,12,0.00,40.00,7,-17,13,0.00
2013-9-11,84,72,59,39,34,30,38,26,14,0.00,40.00,10,-18,26,0.00
2013-9-12,81,73,62,53,43,35,69,37,23,0.00,40.00,13,6,27,1.00
2013-9-13,79,70,57,51,47,41,72,45,28,0.00,40.00,8,-15,18,0.00
2013-9-14,84,71,59,47,41,-100,56,35,21,0.00,40.00,10,4,20,0.00
2013-9-15,83,72,61,43,36,27,49,29,13,0.00,40.00,14,-58,35,0.00
2013-9-16,84,73,64,41,32,26,42,24,13,0.00,40.00,12,6,29,0.00
2013-9-17,73,63,57,34,27,19,32,26,15,0.00,40.00,12,-13,29,0.00
2013-9-18,60,51,45,36,29,22,71,45,25,0.00,40.00,7,3,18,0.00
2013-9-19,74,61,44,30,25,21,49,27,14,0.00,40.00,4,2,12,0.00
2013-9-20,76,66,55,32,25,20,37,22,12,0.00,40.00,18,8,38,0.00
2013-9-21,64,53,41,41,30,-100,80,47,21,0.00,40.00,17,-6,36,3.00
2013-9-22,62,51,39,39,34,27,80,55,27,0.00,40.00,10,4,25,0.00
2013-9-23,74,58,44,39,34,18,74,45,12,0.00,40.00,12,3,27,0.00
2013-9-24,72,66,60,33,25,15,26,22,16,0.00,40.00,15,9,37,0.00
2013-9-25,53,46,37,33,25,18,81,46,27,0.00,40.00,12,-23,25,0.00
2013-9-26,50,42,35,32,26,20,81,56,33,0.00,40.00,7,-9,18,0.00
2013-9-27,57,47,34,27,23,18,70,41,22,0.00,40.00,5,2,14,0.00
2013-9-28,73,58,42,30,23,-100,45,28,19,0.00,40.00,9,3,25,0.00
2013-9-29,68,61,57,29,26,22,33,26,21,0.00,40.00,15,9,40,0.00
2013-9-30,67,61,57,37,30,16,45,32,18,0.00,40.00,11,7,31,0.00
2013-10-1,67,60,55,40,31,21,50,34,17,0.00,40.00,10,6,19,0.00
2013-10-2,61,52,46,31,22,9,50,33,14,0.00,40.00,9,-28,23,0.00
2013-10-3,52,44,36,23,18,9,54,36,19,0.00,40.00,10,-11,27,0.00
2013-10-4,54,43,35,20,16,13,53,35,22,0.00,40.00,9,-29,22,0.00
2013-10-5,62,48,33,17,14,11,47,27,14,0.00,40.00,4,2,15,0.00
2013-10-6,72,60,40,21,18,13,34,20,12,0.00,40.00,11,3,24,0.00
2013-10-7,71,63,50,20,15,10,23,16,11,0.00,40.00,10,5,25,0.00
2013-10-8,62,53,43,22,18,8,38,25,15,0.00,40.00,10,5,20,0.00
2013-10-9,50,44,37,37,30,18,88,61,28,0.00,40.00,7,-9,24,1.00
2013-10-10,59,49,36,34,30,25,81,51,27,0.00,40.00,10,5,22,0.00
2013-10-11,61,51,37,34,30,25,72,46,29,0.00,40.00,9,-14,19,0.00
2013-10-12,64,54,40,30,25,19,55,34,19,0.00,40.00,7,4,19,0.00
2013-10-13,50,43,38,41,32,24,93,65,44,0.00,40.00,6,2,15,0.00
2013-10-14,55,47,34,33,27,24,78,48,30,0.00,40.00,6,2,16,0.00
2013-10-15,54,45,33,27,22,15,69,42,26,0.00,40.00,7,-12,20,0.00
2013-10-16,66,52,34,28,22,16,49,32,15,0.00,40.00,9,3,20,0.00
2013-10-17,63,53,39,27,21,14,59,32,15,0.00,40.00,6,2,15,0.00
2013-10-18,61,52,38,23,19,17,47,27,17,0.00,40.00,3,1,11,0.00
2013-10-21,68,57,44,23,18,15,34,23,14,0.00,40.00,5,2,14,0.00
2013-10-22,70,57,44,23,19,17,36,23,13,0.00,40.00,7,2,14,0.00
2013-10-23,70,57,43,22,18,15,37,22,13,0.00,40.00,7,2,16,0.00
2013-10-24,70,60,46,22,18,13,28,20,11,0.00,40.00,10,3,21,0.00
2013-10-25,70,61,43,22,15,9,33,17,10,0.00,40.00,7,2,15,0.00
2013-10-26,67,56,43,19,12,-100,29,19,13,0.00,40.00,4,1,11,0.00
2013-10-27,66,56,44,25,19,15,43,24,15,0.00,40.00,18,-15,37,0.00
2013-10-28,42,36,30,35,30,25,99,80,53,0.00,40.00,10,-11,28,2.00
2013-10-29,41,39,37,34,29,26,84,68,57,0.00,40.00,7,3,22,0.00
2013-10-31,56,48,33,31,29,26,89,50,32,0.00,40.00,3,1,15,0.00
2013-11-1,58,48,34,30,28,26,73,48,31,0.00,40.00,3,1,11,0.00
2013-11-2,63,58,41,29,21,14,61,25,15,0.00,40.00,7,5,22,0.00
2013-11-3,46,40,33,30,22,11,75,50,32,0.00,40.00,6,-9,21,0.00
2013-11-4,42,36,30,17,14,12,51,40,34,0.00,40.00,7,3,19,0.00
2013-11-5,53,41,27,18,14,11,60,35,20,0.00,40.00,4,1,16,0.00
2013-11-6,60,46,34,24,20,14,53,35,22,0.00,40.00,3,1,15,0.00
2013-11-7,47,45,44,25,24,21,46,43,37,0.00,40.00,4,0,13,0.00
2013-11-8,66,58,50,22,18,13,32,22,14,0.00,40.00,4,2,16,0.00
2013-11-9,60,54,39,25,20,-100,48,29,23,0.00,40.00,3,1,11,0.00
2013-11-10,63,51,40,24,19,11,46,30,15,0.00,40.00,3,1,13,0.00
2013-11-11,51,44,41,12,11,9,29,25,20,0.00,40.00,1,0,9,0.00
2013-11-12,62,57,46,26,21,16,34,25,20,0.00,40.00,3,2,11,0.00
2013-11-13,64,55,42,24,22,18,41,27,20,0.00,40.00,5,2,17,0.00
2013-11-14,64,55,49,23,21,18,35,26,17,0.00,40.00,12,6,25,0.00
2013-11-15,42,38,35,29,28,27,72,65,56,0.00,40.00,6,2,17,0.00
2013-11-16,55,46,37,28,22,-100,70,41,25,0.00,40.00,10,4,28,0.00
2013-11-17,54,45,33,28,25,22,72,49,29,0.00,40.00,2,1,13,0.00
2013-11-18,55,46,35,32,26,21,59,46,34,0.00,40.00,10,4,30,0.00
2013-11-19,54,48,43,37,31,26,75,54,41,0.00,40.00,10,4,20,0.00
2013-11-20,49,43,37,38,36,34,95,78,57,0.00,40.00,6,2,19,0.00
2013-11-21,36,28,25,34,23,18,93,85,67,0.00,40.00,5,0,19,0.00
2013-11-22,36,30,23,20,11,4,72,46,31,0.00,40.00,7,2,19,0.00
2013-11-23,40,34,29,18,8,-100,50,36,25,0.00,40.00,4,2,17,0.00
2013-11-24,45,34,24,20,14,10,66,44,26,0.00,40.00,3,1,18,0.00
2013-11-25,49,37,26,23,18,15,67,48,27,0.00,40.00,3,1,16,0.00
2013-11-26,47,39,29,25,22,20,69,52,35,0.00,40.00,2,0,13,0.00
2013-11-27,49,41,35,27,25,23,64,54,42,0.00,40.00,3,1,13,0.00
2013-11-28,47,39,33,29,27,25,77,62,47,0.00,40.00,5,2,15,0.00
2013-11-29,50,40,30,29,27,25,87,60,40,0.00,40.00,3,1,14,0.00
2013-11-30,36,34,33,27,26,25,73,71,65,0.00,40.00,1,0,13,0.00
2013-12-2,61,54,48,30,19,10,50,27,15,0.00,40.00,10,7,31,0.00
2013-12-3,25,19,15,23,16,10,93,88,78,0.00,40.00,9,3,26,0.00
2013-12-4,19,17,14,14,13,10,89,83,74,0.00,40.00,3,1,24,0.00
2013-12-5,23,17,14,13,11,9,87,77,60,0.00,40.00,3,1,18,0.00
2013-12-6,32,26,15,21,9,-2,88,54,22,0.00,40.00,12,4,18,0.00
2013-12-7,26,22,14,22,10,-100,89,65,41,0.00,40.00,13,5,28,0.00
2013-12-8,13,10,6,6,3,0,78,74,71,0.00,40.00,4,1,11,0.00
2013-12-9,20,14,10,8,4,1,71,65,55,0.00,40.00,3,1,13,0.00
2013-12-10,30,19,9,13,9,2,75,65,41,0.00,40.00,2,0,17,0.00
2013-12-11,29,21,14,15,11,7,77,66,53,0.00,40.00,3,0,13,0.00
2013-12-12,33,23,15,16,12,8,78,64,48,0.00,40.00,3,0,17,0.00
2013-12-13,40,30,22,16,13,10,65,49,30,0.00,40.00,3,1,15,0.00
2013-12-14,39,28,21,20,15,-100,72,60,44,0.00,40.00,2,0,10,0.00
2013-12-15,35,28,22,20,18,15,75,65,54,0.00,40.00,2,0,11,0.00
2013-12-16,41,33,27,23,20,16,68,59,46,0.00,40.00,2,0,10,0.00
2013-12-17,38,36,35,22,20,18,57,53,47,0.00,40.00,3,1,9,0.00
2013-12-18,56,49,39,30,23,20,46,37,25,0.00,40.00,9,4,17,0.00
2013-12-19,42,30,23,28,21,12,90,70,34,0.00,40.00,10,4,19,0.00
2013-12-20,32,24,15,18,12,6,78,62,38,0.00,40.00,7,1,15,0.00
2013-12-21,47,38,30,27,22,-100,74,55,43,0.00,40.00,5,2,13,0.00
2013-12-22,46,37,29,28,25,22,80,64,49,0.00,40.00,4,1,8,0.00
2013-12-23,49,40,31,29,26,22,82,60,41,0.00,40.00,3,0,10,0.00
2013-12-24,49,40,33,29,25,21,74,57,39,0.00,40.00,3,1,10,0.00
2013-12-25,42,34,28,29,26,22,88,72,58,0.00,40.00,2,0,12,0.00
2013-12-26,43,34,25,26,22,17,83,63,37,0.00,40.00,3,1,10,0.00
2013-12-27,44,38,30,24,19,13,57,46,32,0.00,40.00,5,1,7,0.00
2013-12-28,45,37,32,20,13,-100,59,40,26,0.00,40.00,10,3,19,0.00
2013-12-29,40,31,23,22,19,16,74,61,45,0.00,40.00,3,1,9,0.00
2013-12-30,42,39,35,22,19,15,57,45,36,0.00,40.00,3,1,11,0.00
2013-12-31,52,42,34,25,17,11,55,37,23,0.00,40.00,3,1,10,0.00
2014-1-1,48,40,31,20,16,11,50,37,29,0.00,40.00,3,1,12,0.00
2014-1-2,49,40,28,23,20,18,65,46,33,0.00,40.00,2,0,12,0.00